sat.trackr.live / text

‹ back to catalog

STARLINK-5790

NORAD 56036 · 2023-042BC

PAYLOAD ACTIVE UNKNOWN

§ Identity

Operator
Country
US
Launch date
2023-03-24
Launch site
AFETR
Launch vehicle
Mass (kg)
RCS (m²)

Purposes: comms

External: N2YO · Heavens-Above · Gunter

§ Orbital elements

Epoch: 2026-09-20T14:30:09.636480Z

Period
94.27 min
Inclination
43.0053°
Eccentricity
0.0001770
Mean motion
15.27575130 rev/d
Perigee alt
481.8 km
Apogee alt
484.3 km
Semi-major
6,861.2 km
B*
4.0996e-5
RAAN
24.5574°
Arg perigee
278.4392°
Mean anomaly
81.6260°
Rev number
19,284

§ Raw data

STARLINK-57901 56036U 23042BC  26263.60427820  .00000866  00000+0  40996-4 0  99902 56036  43.0053  24.5574 0001770 278.4392  81.6260 15.27575130192847

JSON: /api/v1/satellites/56036 · /tle

For live sub-satellite position, see the globe view (requires WebGL).

§ Visibility from observer

Set your observer location to see the next 7 days of passes ≥ 10°. The values pass through the URL so the page stays shareable.

No JS? Fill the form by hand. The geolocation button needs JavaScript.